Content
SEND FEEDBACK

Daily
Averages
Monthly
Summary
United States of America

NEW ALBANY, MISSISSIPPI


Home > North America > United States > Mississippi
Elevation: 38 feet     Latitude: 34 28N     Longitude: 089 00W

WEATHER
 
SELECT A DAY
Number of Records: 153,755;   Date Range: 1/1/00 - 10/30/14
 
SHARE

PRINT THIS DATA

[ ← Previous Day ]
WEATHER ALMANAC - FEBRUARY 13, 2013
[ Next Day → ]
[ °C ]   °F
Weather ElementAverageHighLow
Temperature43.4 °F45 °F (6:53 am)37.9 °F (11:53 pm)
Dewpoint29.3 °F42.1 °F (12:53 am) (7:00 pm)
Humidity69.2 %97 % (12:53 am)53 % (8:41 am)
Barometer29.92 in30.07 in (10:53 pm)29.75 in (2:38 am)
Wind Speed5.5 mph12.7 mph (9:53 am)
Wind Gust20.7 mph (2:53 pm)
Weather ElementAverage
Visibility8.6 mi
Wind DirectionWSW (232.8 °)

Weather ElementTotal
Precipitation0.03 in
Heating Degree Days23.6 (Base 65)
Averaged from 32 records on February 13, 2013
WEATHER CONDITIONS BREAKOUT
WIND DIRECTION BREAKOUT
WEATHER BY HOUR - FEBRUARY 13, 2013
[ °C ]   °F
Local TimeTemperatureDewpointHumidityBarometerVisibilityWind DirectionWind SpeedGust SpeedPrecipitationEventsConditions
12:53 AM43.0 °F42.1 °F97 %29.77 in5.0 miCalm0.01 inOvercast
1:53 AM44.1 °F35.1 °F71 %29.76 in4.0 miCalm0.01 inHaze
2:38 AM44.6 °F0.0 °F29.75 in2.5 miWSW (250°)3.5 mphOvercast
2:50 AM44.6 °F0.0 °F29.75 in3.0 miWSW (250°)3.5 mphOvercast
2:53 AM44.1 °F0.0 °F29.75 in3.0 miWSW (250°)3.5 mphOvercast
3:53 AM44.1 °F0.0 °F29.76 in4.0 miWNW (290°)5.8 mph0.01 inHaze
4:53 AM44.1 °F32.0 °F63 %29.80 in3.0 miWest (280°)6.9 mphHaze
5:22 AM44.6 °F32.0 °F61 %29.80 in10.0 miWest (280°)8.1 mphOvercast
5:53 AM44.1 °F32.0 °F63 %29.81 in10.0 miWNW (290°)5.8 mphOvercast
6:53 AM45.0 °F30.9 °F58 %29.84 in10.0 miWest (280°)5.8 mphOvercast
7:53 AM45.0 °F30.9 °F58 %29.87 in10.0 miNW (320°)9.2 mphOvercast
8:12 AM44.6 °F30.2 °F57 %29.89 in10.0 miWNW (300°)6.9 mphOvercast
8:41 AM44.6 °F28.4 °F53 %29.90 in10.0 miNNW (330°)6.9 mphOvercast
8:53 AM44.1 °F28.9 °F55 %29.91 in10.0 miNNW (340°)11.5 mphOvercast
9:53 AM43.0 °F28.9 °F58 %29.93 in10.0 miNorth (350°)12.7 mph19.6 mphOvercast
10:53 AM43.0 °F28.9 °F58 %29.96 in10.0 miNNW (330°)11.5 mph16.1 mphOvercast
11:53 AM43.0 °F30.9 °F62 %29.96 in10.0 miNNW (340°)9.2 mphOvercast
12:07 PM42.8 °F30.2 °F61 %29.95 in10.0 miNorth (360°)10.4 mphOvercast
12:53 PM44.1 °F34.0 °F68 %29.96 in10.0 miNorth (350°)12.7 mph17.3 mphOvercast
1:53 PM45.0 °F35.1 °F68 %29.97 in10.0 miNorth (350°)9.2 mphOvercast
2:53 PM44.1 °F35.1 °F71 %29.98 in10.0 miNorth (360°)10.4 mph20.7 mphOvercast
3:53 PM44.1 °F35.1 °F71 %29.99 in10.0 miNorth (360°)4.6 mphOvercast
4:53 PM44.1 °F35.1 °F71 %29.99 in10.0 miNW (320°)5.8 mphOvercast
5:32 PM42.8 °F33.8 °F70 %30.00 in10.0 miNorth (350°)4.6 mphScattered Clouds
5:53 PM42.1 °F34.0 °F73 %30.00 in10.0 miNW (310°)3.5 mphMostly Cloudy
6:53 PM43.0 °F36.0 °F76 %30.03 in10.0 miCalmOvercast
7:53 PM43.0 °F37.0 °F80 %30.04 in10.0 miCalmOvercast
8:53 PM43.0 °F37.0 °F80 %30.05 in10.0 miCalmOvercast
9:53 PM43.0 °F37.0 °F80 %30.06 in10.0 miCalmOvercast
10:53 PM42.1 °F36.0 °F79 %30.07 in10.0 miCalmMostly Cloudy
11:07 PM39.2 °F35.6 °F87 %30.07 in10.0 miSSW (210°)4.6 mphScattered Clouds
11:53 PM37.9 °F35.1 °F89 %30.07 in10.0 miCalmClear
Hourly data recorded from KTUP, located miles away from New Albany, Mississippi







STORIES FROM OUR PARTNERS